Theta_e
315 315 315 314 314 313 313 313 314 314 315 317 318 318 319 320 319 309 303 310 314 320 320 313 308 308 310 307 307 307 297 293 293 295 292 295 293 296 298 296 296 298 296 298 301
315 315 316 314 314 313 313 313 313 313 314 316 317 318 319 319 309 303 310 316 318 319 312 305 305 306 303 304 303 300 298 294 294 293 293 295 295 295 294 294 293 295 299 300 300
315 315 316 315 314 314 313 313 313 313 314 315 317 318 319 317 303 301 314 316 316 315 310 306 305 305 302 302 298 297 294 294 294 295 296 294 294 296 292 291 294 293 295 297 298
315 315 316 315 315 314 314 313 313 313 313 315 316 318 319 309 296 305 316 316 315 310 307 303 303 302 300 296 297 292 295 296 296 296 295 293 295 292 293 293 297 296 296 297 296
317 316 316 316 315 314 314 314 313 313 313 314 316 319 314 301 299 308 315 313 309 307 303 302 300 302 296 294 296 293 293 295 295 295 294 296 293 292 292 296 297 297 298 295 296
318 318 317 316 315 315 314 314 313 313 313 315 317 318 306 296 307 308 308 308 307 305 303 302 300 300 296 294 293 295 295 293 294 294 294 293 291 292 294 296 295 296 295 294 296
319 318 318 317 316 315 315 315 313 312 313 315 317 311 303 299 307 308 308 306 306 305 301 302 302 300 298 293 297 295 290 291 292 293 292 294 289 289 294 296 295 294 293 295 296
319 318 318 317 316 316 315 314 314 313 314 315 317 308 298 308 308 306 308 305 306 306 304 304 305 300 298 296 294 290 290 284 290 292 292 290 285 292 294 293 292 293 291 294 295
319 318 318 317 317 316 315 315 314 314 314 316 308 305 297 309 303 305 306 304 304 303 303 303 303 296 295 290 286 287 283 285 287 292 292 289 286 291 294 292 291 292 292 293 294
316 319 318 318 317 316 315 313 314 312 310 308 305 299 300 298 303 303 306 305 303 302 301 300 296 291 290 288 281 284 282 285 285 289 290 288 286 290 292 292 290 291 291 292 293
314 319 318 318 316 314 308 308 305 304 306 300 299 298 299 303 305 302 304 303 303 299 292 295 289 285 288 290 289 288 287 285 287 291 288 286 287 290 291 290 290 290 290 291 292
312 316 318 317 315 313 308 301 302 303 294 302 301 300 302 303 295 299 304 298 296 291 293 289 284 290 292 291 288 286 285 284 287 290 287 287 287 290 291 290 290 291 290 291 292
312 312 317 315 313 308 304 303 308 306 295 297 300 299 300 301 295 297 300 297 293 291 290 290 290 292 291 288 287 286 285 285 286 288 288 285 283 287 291 291 292 291 291 291 291
310 311 316 313 305 305 302 307 308 307 290 295 295 297 299 301 294 300 300 297 293 289 291 290 291 290 288 287 288 283 289 289 288 284 279 285 278 283 288 288 289 289 289 290 291
309 310 315 306 302 300 304 307 308 305 283 294 293 302 300 295 295 295 300 297 291 289 289 287 288 288 288 288 289 286 290 288 288 284 280 281 276 282 288 285 287 288 289 290 291
307 309 307 303 301 303 306 306 306 289 283 286 293 293 292 294 294 296 296 297 295 291 291 288 293 291 289 290 290 291 287 288 285 284 275 282 281 280 282 286 288 289 289 291 291
307 310 307 303 301 303 303 303 287 285 292 286 288 292 292 290 291 293 291 288 286 282 282 285 288 291 292 287 290 289 284 280 276 274 275 283 280 283 288 290 290 289 289 290 290
306 307 304 303 304 304 303 293 284 287 288 291 291 291 288 290 289 290 289 285 289 289 288 283 279 286 290 288 286 285 285 282 274 275 277 280 278 282 288 292 291 291 289 290 289
306 302 301 303 304 304 296 284 286 288 294 289 290 286 286 289 289 288 287 288 290 289 286 282 282 288 290 290 290 285 281 286 280 272 275 279 282 284 287 288 290 289 289 288 290
302 299 297 303 304 301 288 289 288 295 293 293 288 290 283 285 283 284 286 290 290 291 293 290 284 285 287 289 289 287 288 279 279 270 270 277 278 280 281 286 288 287 287 288 290
299 293 299 302 303 291 284 286 289 296 294 291 290 287 289 286 286 283 287 290 292 292 291 292 288 281 286 284 283 283 282 282 283 280 276 276 278 282 284 287 288 287 288 288 289
296 285 300 302 287 285 285 287 293 293 293 291 291 291 289 288 286 286 286 289 294 293 288 292 287 281 281 286 288 287 285 284 279 279 279 279 280 287 287 289 290 288 288 289 290
287 286 298 297 284 284 286 286 290 288 289 290 289 291 292 288 286 288 289 291 292 291 289 290 284 276 279 280 283 282 285 286 285 283 278 278 280 287 288 289 290 288 288 289 289
287 283 286 290 288 286 286 285 286 292 292 292 291 290 287 286 289 286 288 289 291 292 293 293 285 283 280 279 282 279 282 285 284 278 280 281 284 285 286 287 288 289 289 289 288
286 284 287 281 283 285 286 287 285 285 290 292 287 289 287 284 284 284 287 287 288 290 289 288 281 284 284 285 282 281 282 283 281 283 280 283 284 288 290 287 289 290 289 288 288
284 284 286 285 286 284 285 283 285 286 285 284 286 287 290 287 287 284 287 285 286 287 286 285 281 279 279 283 282 280 281 283 285 285 285 286 285 294 295 292 290 290 289 288 288
290 291 286 285 284 283 283 283 283 288 289 291 289 288 285 289 293 290 293 291 290 286 284 284 282 281 277 277 277 274 279 281 284 286 286 282 288 288 289 289 290 290 290 289 288
Wind_Speed
7 9 10 11 10 11 12 13 14 14 14 14 13 13 14 14 11 4 5 6 8 15 12 8 4 4 6 2 3 3 3 4 2 6 7 8 5 3 2 8 6 5 8 5 5
6 8 10 11 11 11 12 12 13 14 14 15 14 13 13 13 4 6 3 8 10 10 6 4 5 5 2 2 2 3 3 6 7 6 8 8 7 7 6 7 6 6 7 6 5
5 7 9 11 12 12 12 13 13 13 14 14 15 13 12 9 4 4 8 10 9 9 6 5 5 5 5 4 5 6 4 5 6 3 10 6 8 5 3 6 6 6 7 6 6
5 6 8 10 12 13 13 13 13 14 13 14 14 13 13 4 1 4 9 9 7 7 5 3 4 3 3 4 1 5 6 5 5 3 6 7 8 4 2 6 9 8 3 6 7
7 7 8 9 11 13 14 15 14 14 14 14 14 13 6 3 4 6 8 6 3 3 4 5 5 2 4 5 5 7 4 7 7 3 5 7 5 1 6 8 8 5 4 6 6
7 8 8 10 11 12 13 14 16 15 14 14 12 15 4 1 3 6 6 3 5 3 1 3 4 8 8 5 5 6 7 8 6 5 4 4 3 1 7 10 7 3 5 5 7
7 7 7 9 12 12 14 14 14 15 15 12 10 5 4 3 3 5 4 1 3 4 3 5 6 2 5 5 5 9 7 4 4 6 4 5 4 7 8 9 8 6 5 4 6
8 8 8 8 10 14 15 17 15 15 13 9 7 4 3 1 3 5 6 6 6 7 7 3 7 7 5 7 4 3 4 3 7 7 3 3 3 8 10 9 8 7 4 5 7
10 9 9 8 10 12 16 17 17 8 4 7 4 3 3 2 1 3 5 3 5 5 4 2 3 4 2 4 4 3 3 6 5 9 6 7 1 8 8 8 7 7 6 5 6
15 9 9 8 9 13 18 18 4 5 4 3 3 2 1 2 2 1 2 4 1 3 4 2 3 4 3 4 5 6 5 3 6 9 8 7 10 7 8 7 8 7 6 6 7
19 8 8 7 9 13 12 3 2 1 4 1 3 2 3 3 2 3 3 1 1 3 3 2 2 6 9 9 3 4 7 5 6 6 6 10 10 9 13 9 8 7 6 7 7
19 16 6 4 7 12 7 3 3 0 5 3 3 4 3 3 3 3 3 1 3 2 4 3 4 4 4 3 2 2 4 1 4 4 4 7 13 13 12 12 10 9 8 8 6
17 19 4 3 6 6 3 4 2 3 4 4 2 0 3 3 3 3 3 1 1 4 6 6 2 2 3 2 2 4 5 2 2 5 6 6 9 9 7 9 9 5 8 8 7
18 20 5 2 2 2 0 2 2 2 3 3 3 2 2 1 2 2 3 2 2 1 1 1 4 2 2 2 5 5 4 1 7 4 3 5 6 2 9 9 9 9 8 9 8
16 21 4 1 3 1 3 2 2 1 5 4 3 3 1 2 5 3 2 1 4 3 1 4 3 1 2 2 4 1 2 2 3 4 4 5 1 7 9 9 11 11 10 9 9
17 14 3 1 1 0 2 4 2 7 8 0 3 3 4 1 2 4 2 5 2 3 5 3 1 4 4 2 2 6 3 3 2 2 2 10 9 5 8 9 14 14 12 11 9
14 14 2 2 0 2 3 2 5 5 2 3 4 4 5 5 4 4 5 4 4 5 3 1 2 4 0 3 4 1 3 1 3 1 7 6 5 8 4 6 12 20 15 12 10
8 10 2 1 3 2 2 5 8 3 4 1 2 6 5 5 2 4 4 3 4 2 3 4 5 8 8 1 3 4 1 4 7 5 4 4 7 8 4 4 8 15 15 13 10
7 2 2 2 2 2 5 3 6 7 6 8 3 2 4 4 1 3 4 4 9 11 7 5 3 3 2 2 2 3 6 1 2 1 2 7 7 1 1 2 12 15 15 14 12
4 1 1 2 3 2 3 13 4 1 3 4 5 6 4 4 4 4 6 4 4 11 4 4 2 1 2 2 2 2 5 2 2 2 6 6 6 7 9 11 14 16 16 14 13
2 1 2 3 1 4 5 6 4 3 3 1 5 3 2 5 6 3 2 2 2 5 6 6 3 3 4 8 9 5 3 3 2 3 4 3 7 2 11 20 22 19 17 16 16
3 2 2 3 3 2 4 5 4 4 3 2 2 3 4 4 4 3 3 4 6 1 3 3 1 4 9 3 2 5 10 9 6 6 5 1 11 3 1 17 16 17 16 14 16
2 0 1 2 6 6 0 3 2 4 5 7 7 4 3 5 3 7 5 2 5 2 2 4 4 1 3 0 2 5 6 5 7 3 9 7 5 1 2 11 14 17 17 16 16
1 2 1 1 1 3 7 5 6 6 3 4 4 5 3 4 2 3 8 3 7 2 11 7 2 5 1 2 5 6 9 15 8 8 12 20 14 5 4 9 13 14 17 17 16
1 2 2 6 9 4 2 3 16 12 6 8 5 11 8 5 6 6 5 4 4 2 3 4 4 3 13 9 5 5 7 15 18 23 18 17 25 21 12 13 18 17 17 17 17
3 2 1 1 1 12 13 11 10 11 9 6 9 8 9 10 8 9 9 6 5 8 8 5 2 0 5 8 8 16 12 12 23 24 22 24 34 19 12 13 14 21 22 23 20
3 3 2 2 6 6 13 13 11 10 10 13 11 11 12 15 10 1 6 5 8 10 10 9 5 3 4 4 4 13 21 25 22 17 24 20 29 3 13 13 19 22 24 26 24
Wind_Direction
358 355 355 356 357 354 353 353 351 350 348 345 347 347 340 337 319 235 54 343 316 320 316 271 261 216 232 108 338 305 297 165 104 156 117 139 129 48 267 113 46 58 61 58 359
349 352 351 351 350 349 348 346 347 346 346 342 338 343 337 333 294 75 34 334 323 322 283 278 173 204 106 100 6 8 304 47 13 38 130 170 130 134 148 139 126 124 111 54 13
329 343 344 346 344 345 342 340 340 341 342 340 333 333 330 315 251 70 357 339 330 305 267 297 296 290 93 31 1 13 48 111 42 354 118 127 101 130 170 198 97 114 67 37 20
310 324 334 340 339 339 337 334 335 334 339 334 331 325 323 256 177 33 348 326 325 301 275 221 240 241 125 95 22 98 13 63 106 17 97 149 113 176 278 79 89 84 42 45 26
295 305 320 325 330 334 335 332 329 330 331 329 327 320 308 225 83 352 344 335 270 282 309 279 240 151 122 100 72 87 111 83 90 103 110 88 156 119 140 115 105 125 84 45 33
280 293 307 314 318 327 326 329 325 324 325 323 322 313 255 202 303 352 339 326 16 290 34 294 348 72 75 58 17 98 113 118 149 102 105 179 111 334 159 139 141 166 91 42 41
276 281 290 301 311 317 317 317 317 316 315 313 314 307 271 72 359 343 10 26 331 336 91 357 10 27 112 101 97 121 108 126 166 164 129 280 199 226 133 151 173 169 143 76 66
271 276 280 286 301 311 314 311 308 308 306 292 299 280 60 55 351 24 322 89 44 49 73 49 74 67 52 129 106 186 158 181 158 159 113 202 291 158 136 161 197 180 135 105 80
267 269 278 291 300 304 308 306 302 296 260 281 248 265 98 186 22 8 11 47 113 91 74 110 43 94 139 161 112 209 260 188 177 189 135 201 207 134 153 181 211 176 139 108 74
344 259 272 289 300 314 313 299 294 293 219 218 261 242 126 69 36 319 36 343 54 151 108 138 109 121 182 200 207 181 210 183 174 195 203 199 257 160 174 194 216 189 154 123 87
1 272 253 286 311 324 332 339 297 181 229 53 18 42 116 111 217 60 344 76 271 249 156 49 178 205 206 218 29 321 198 217 103 141 178 235 262 235 181 189 211 190 163 122 106
2 349 239 276 309 319 298 28 51 246 312 108 106 115 35 323 147 95 282 64 172 173 123 97 229 23 4 104 100 288 286 121 35 128 189 276 253 234 185 184 185 188 165 131 130
358 355 233 251 326 303 341 54 33 315 244 122 53 69 84 275 15 99 321 54 279 178 200 156 139 71 6 74 173 236 244 192 80 156 241 307 272 223 207 140 174 141 120 124 137
348 353 187 244 360 11 48 108 48 9 44 223 125 89 185 252 158 7 1 28 97 207 187 206 88 123 111 214 196 223 5 359 128 156 250 167 274 212 169 157 172 154 155 161 146
344 342 181 52 353 253 43 321 306 216 313 48 86 334 354 252 131 81 332 291 125 101 108 218 106 71 141 114 2 147 291 122 159 216 45 203 315 251 139 203 189 175 179 157 153
335 340 50 61 316 26 49 312 264 52 251 111 99 146 156 197 93 133 149 46 5 93 50 96 135 53 33 76 329 158 95 61 318 205 279 207 178 245 191 212 184 177 169 148 144
337 324 204 311 65 18 50 328 46 194 6 261 161 171 220 156 165 206 166 165 156 117 193 123 121 108 176 97 3 342 146 357 335 328 232 347 201 247 164 172 177 171 158 149 159
339 356 30 7 360 351 24 55 202 213 211 320 143 158 177 126 221 214 166 207 225 257 125 166 287 176 179 182 172 188 279 188 225 204 229 29 233 253 6 79 140 154 147 146 165
322 4 355 30 360 37 100 201 214 179 168 154 153 187 178 139 310 172 231 249 193 188 187 153 223 87 359 98 86 197 219 347 261 313 22 214 252 239 174 179 140 150 154 162 166
329 353 267 23 297 100 83 226 230 359 106 148 218 143 169 196 171 193 199 234 238 182 210 177 167 235 103 58 218 231 330 138 264 254 257 258 226 233 194 187 166 166 172 171 164
271 226 45 275 147 64 210 236 218 150 152 229 211 140 197 148 166 218 249 288 276 175 230 111 187 135 143 211 173 157 217 208 302 230 232 277 255 339 183 185 181 177 176 176 170
294 216 95 303 129 183 207 188 228 158 42 123 353 230 187 127 161 210 249 65 36 159 177 126 212 196 211 121 342 217 220 182 205 231 229 215 256 54 45 185 178 177 178 175 174
325 74 67 341 205 205 66 334 271 155 174 181 200 192 167 168 188 202 188 13 329 159 351 169 209 193 221 352 163 216 195 224 231 328 239 230 256 11 349 167 188 177 179 177 172
243 203 273 197 11 282 199 209 230 226 235 194 140 102 137 176 221 184 211 72 15 24 32 51 285 247 241 23 111 197 200 207 201 222 241 244 268 218 206 183 186 183 183 180 176
257 249 236 204 226 209 325 228 219 225 227 167 200 198 170 179 168 207 197 149 138 193 121 155 237 252 285 282 220 237 209 202 210 233 230 249 250 245 227 197 195 179 177 183 185
292 236 297 302 193 201 222 221 245 212 172 232 230 185 207 212 187 189 170 177 186 169 167 176 219 277 270 232 227 261 234 215 218 229 241 250 263 258 239 209 172 184 182 189 192
212 258 308 289 192 201 217 229 243 248 251 229 199 220 220 228 240 7 191 169 157 166 174 164 176 189 267 1 325 279 225 221 227 223 221 222 239 198 220 195 189 186 188 193 192